Current Version              Previous Version:    01  02  03  04  05  06  07  08  09  10  11  12  13  14  15  16  17  18  19  20  21  22  23  24  25  26  27  28  29  30  
   31  32  33  34  35  36  37  38  39  40  41  42  43  44  45  46  47  48  49  50  51  52  53  54  55  56  57  58  59  60  

[Printable]
039
ASUS44 KFWD 020115
RWRTX
NORTH TEXAS HOURLY WEATHER ROUNDUP
NATIONAL WEATHER SERVICE FORT WORTH TX
800 PM CDT MON SEP 01 2014

NOTE: "FAIR" INDICATES FEW OR NO CLOUDS BELOW 12,000 FEET WITH NO
SIGNIFICANT WEATHER AND/OR OBSTRUCTIONS TO VISIBILITY.

TXZ118-119-020200-
DALLAS/FORT WORTH METROPLEX

CITY           SKY/WX    TMP DP  RH WIND       PRES   REMARKS
DFW AIRPORT    PTCLDY    92  67  43 S15G24    29.84R HX  95
DALLAS LOVE    CLEAR     92  67  43 S13       29.85R HX  95
FTW MEACHAM    CLEAR     94  65  38 S16G23    29.83R HX  96
DAL-EXECUTIVE  CLEAR     92  66  42 SE14      29.85R HX  94
FTW-ALLIANCE   CLEAR     90  67  46 SE12G23   29.83R HX  93
FTW-NAS-JRB    CLEAR     96  63  33 SE12G25   29.87R HX  97
FTW-SPINKS     CLEAR     90  65  43 SE3       29.86R HX  92
ARLINGTON      CLEAR     91  67  44 SE13      29.85R HX  94
GRAND PRAIRIE  CLEAR     91  64  40 E9G17     29.86R HX  93
LANCASTER      CLEAR     89  65  45 SE7       29.87R HX  90
$$

TXZ091>094-102>105-117-120-121-131>134-020200-
NORTH CENTRAL TEXAS

CITY           SKY/WX    TMP DP  RH WIND       PRES   REMARKS
SHRMAN/DENISON CLEAR     89  66  46 SE13      29.86S HX  92
GAINESVILLE    CLEAR     87  69  54 SE13      29.86R HX  91
BOWIE          CLEAR     89  67  48 SE14      29.82S HX  92
BRIDGEPORT     CLEAR     91  62  36 S10       29.84S HX  92
DECATUR        CLEAR     91  64  40 SE14G20   29.85S HX  91
DENTON         CLEAR     91  68  46 SE15G24   29.84R HX  95
MCKINNEY       CLEAR     89  68  49 SE12      29.86R HX  93
GREENVILLE     CLEAR     86  66  51 SE6       29.88S
ROCKWALL       CLEAR     88  70  54 SE8       29.86R HX  93
TERRELL        CLEAR     90  66  45 SE9       29.87S HX  92
WAXAHACHIE     CLEAR     89  64  42 SE9       29.87S HX  90
CLEBURNE       CLEAR     91  66  43 SE12      29.87R HX  94
GRANBURY       CLEAR     94  64  36 SE10      29.84S HX  96
$$

TXZ083>090-098>101-113>116-127>130-139>142-154-155-020200-
WESTERN NORTH TEXAS

CITY           SKY/WX    TMP DP  RH WIND       PRES   REMARKS
WICHITA FALLS  CLEAR     93  66  40 S18       29.77R HX  96
WF-KICKAPOO    CLEAR     94  61  33 SE16G22   29.79R HX  94
VERNON         CLEAR     97  58  27 SE13      29.77R HX  96
ABILENE        CLEAR     94  59  31 SE16      29.83R HX  93
ABILENE-DYESS  CLEAR     94  60  31 S15       29.82R HX  94
BRECKENRIDGE   CLEAR     95  59  30 SE9       29.81S HX  94
GRAHAM         CLEAR     92  64  38 SE10G18   29.80R HX  93
MINERAL WELLS  CLEAR     91  66  43 SE9       29.82R HX  93
STEPHENVILLE   CLEAR     91  63  40 SE10      29.88R HX  91
COMANCHE         N/A     92  60  34 S10G17    29.85S HX  91
BROWNWOOD      PTCLDY    93  63  36 SE9       29.84S HX  94
COLEMAN        CLEAR     92  56  29 S9        29.85S HX  91
BRADY          CLEAR     91  61  35 SE9       29.87S HX  91
$$

TXZ143>147-156>162-174-175-020200-
CENTRAL TEXAS

CITY           SKY/WX    TMP DP  RH WIND       PRES   REMARKS
WACO           CLEAR     91  67  44 SE13      29.84S HX  94
WACO-TSTC      CLEAR     91  66  43 S17       29.85  HX  94
WACO-MCGREGOR  CLEAR     91  64  40 S15       29.85S HX  93
HILLSBORO      CLEAR     91  64  40 SE10      29.86R HX  92
CORSICANA      CLEAR     90  67  46 SE8       29.87S HX  93
MEXIA          CLEAR     86  68  55 SE5       29.86S HX  90
HEARNE           N/A     89  71  54 SE7       29.88R HX  95
CAMERON        PTCLDY    91  69  49 SE6       29.86R HX  95
TEMPLE         CLEAR     90  64  43 SE14      29.86R HX  91
KILLEEN        PTCLDY    91  68  46 SE14      29.86R HX  95
KILLEEN-SKYLRK CLEAR     91  68  46 SE14G22   29.86R HX  95
FORT HOOD      CLEAR     93  68  43 SE15G23   29.86R HX  97
GATESVILLE     CLEAR     91  64  40 SE8G16    29.87S HX  93
HAMILTON       CLEAR     91  63  39 S13       29.87S HX  91
LAMPASAS       CLEAR     91  66  44 SE8       29.86S HX  93
$$

TXZ095>097-106>112-122>126-135>138-148>153-164>167-020200-
EAST TEXAS

CITY           SKY/WX    TMP DP  RH WIND       PRES   REMARKS
PARIS          CLEAR     84  66  54 S8        29.89S
SULPHUR SPRNGS CLEAR     88  67  48 S6        29.90S HX  91
MOUNT PLEASANT PTCLDY    86  68  54 SE5       29.90S
GILMER         CLEAR     90  72  55 CALM      29.91R HX  96
MINEOLA        CLEAR     88  68  51 S3        29.90R HX  91
TYLER          CLEAR     88  69  53 SE7       29.89S HX  92
LONGVIEW       CLEAR     87  70  56 S10       29.90R HX  92
MARSHALL       CLEAR     89  76  67 SE5       29.94R HX 100
ATHENS         CLEAR     84  70  61 CALM      29.88S
PALESTINE      CLEAR     88  71  57 SE5       29.90S HX  93
JACKSONVILLE   CLEAR     84  74  70 SE5       29.94R HX  91
HENDERSON      CLEAR     86  71  59 SE8       29.92R HX  91
NACOGDOCHES    PTCLDY    84  73  70 SE6       29.93R HX  91
LUFKIN         PTCLDY    86  76  71 SE5       29.92S HX  96
$$

SUPPLEMENTAL OBSERVATIONS (CENTRAL)

CITY           SKY/WX    TMP DP  RH WIND       PRES   REMARKS
LAKE TEXOMA      N/A     90  68  48 SE10        N/A  HX  93
CADDO GRASSLND   N/A     88  66  48 S7          N/A  HX  90
PAT MAYSE LAKE   N/A     88  70  55 SE8         N/A  HX  92
PALESTINE        N/A     86  70  58 S5          N/A  HX  90
LAKE LIMESTONE   N/A     90  70  51 SE6         N/A  HX  95
MCGREGOR         N/A     91  66  43 S15G22      N/A  HX  94
TEMPLE           N/A     90  66  45 SE9G18      N/A  HX  92
$$

SUPPLEMENTAL OBSERVATIONS (WEST)

CITY           SKY/WX    TMP DP  RH WIND       PRES   REMARKS
MILLERS CREEK    N/A     93  57  29 S15G24      N/A  HX  92
POSSUM KINGDOM   N/A     91  63  38 SE12G21     N/A  HX  92
LBJ GRASSLAND    N/A     90  64  43 SE12        N/A  HX  91
GRANBURY         N/A     93  64  38 SE10G20     N/A  HX  95
COMANCHE         N/A     91  63  38 SE13        N/A  HX  92
HAMBY            N/A     93  55  27 S14G22      N/A  HX  91
IVIE RESERVOIR   N/A     93  59  31 SE13        N/A  HX  92
COLORADO BEND    N/A     91  63  38 S9          N/A  HX  92
$$

SUPPLEMENTAL OBSERVATIONS (EAST)

CITY           SKY/WX    TMP DP  RH WIND       PRES   REMARKS
CLARKSVILLE      N/A     84  66  54 S6          N/A
TEXARKANA        N/A     86  72  62 SE3         N/A  HX  92
LINDEN           N/A     88  70  55 S1          N/A  HX  92
CADDO LAKE       N/A     84  70  61 S3          N/A
GILMER           N/A     86  70  58 CALM        N/A  HX  90
HENDERSON        N/A     86  72  62 S8          N/A  HX  92
LUFKIN           N/A     84  75  74 MISG        N/A  HX  92
S SABINE NF      N/A     81  77  89 NE1         N/A
$$

SUPPLEMENTAL OBSERVATIONS ARE A COLLECTION OF AUTOMATED INSTRUMENTS
THAT ARE MAINTAINED BY A VARIETY OF FEDERAL AND STATE AGENCIES.
CERTAIN ELEMENTS...SUCH AS HUMIDITY VALUES AND SUSTAINED WIND
SPEEDS...MAY BE APPROXIMATED.